When you browse on this site, cookies collect data to enhance your experience and personalize the content and advertising you see.
Visit our Privacy Policy to learn more. By continuing to use the site, you agree to this use of cookies and data.
  • In United Kingdom
  • List of Countries
  • For 7 days
  • Water Temperature
  • Satellite Maps
  • Weather Map
  • Weather Widgets
  • user-avatar
    Login

    Hourly Weather Dahab

    Today, 22 May, Wednesday

    Time Temperature Precipitation Wind Pressure Humidity
    00:00 +33°C° 0 mm 3 mps 715 mmHg 17%
    01:00 +32°C° 0 mm 4 mps 715 mmHg 19%
    02:00 +30°C° 0 mm 3 mps 714 mmHg 20%
    03:00 +30°C° 0 mm 4 mps 714 mmHg 21%
    04:00 +30°C° 0 mm 4 mps 715 mmHg 21%
    05:00 +30°C° 0 mm 4 mps 715 mmHg 22%
    06:00 +32°C° 0 mm 4 mps 715 mmHg 20%
    07:00 +34°C° 0 mm 4 mps 715 mmHg 18%
    08:00 +35°C° 0 mm 4 mps 715 mmHg 15%
    09:00 +36°C° 0 mm 4 mps 715 mmHg 14%
    10:00 +37°C° 0 mm 3 mps 715 mmHg 14%
    11:00 +38°C° 0 mm 3 mps 716 mmHg 13%
    12:00 +38°C° 0 mm 3 mps 715 mmHg 13%
    13:00 +39°C° 0 mm 2 mps 715 mmHg 12%
    14:00 +39°C° 0 mm 2 mps 715 mmHg 12%
    15:00 +38°C° 0 mm 2 mps 714 mmHg 13%
    16:00 +38°C° 0 mm 2 mps 714 mmHg 13%
    17:00 +38°C° 0 mm 2 mps 714 mmHg 13%
    18:00 +37°C° 0 mm 2 mps 714 mmHg 14%
    19:00 +36°C° 0 mm 2 mps 714 mmHg 14%
    20:00 +35°C° 0 mm 2 mps 714 mmHg 15%
    21:00 +35°C° 0 mm 2 mps 714 mmHg 15%
    22:00 +35°C° 0 mm 3 mps 714 mmHg 15%
    23:00 +34°C° 0 mm 3 mps 714 mmHg 15%

    Tomorrow, 23 May, Thursday

    Time Temperature Precipitation Wind Pressure Humidity
    00:00 +34°C° 0 mm 3 mps 714 mmHg 16%
    01:00 +34°C° 0 mm 4 mps 714 mmHg 16%
    02:00 +33°C° 0 mm 4 mps 714 mmHg 16%
    03:00 +33°C° 0 mm 4 mps 714 mmHg 16%
    04:00 +32°C° 0 mm 4 mps 714 mmHg 16%
    05:00 +32°C° 0 mm 4 mps 714 mmHg 16%
    06:00 +33°C° 0 mm 4 mps 714 mmHg 15%
    07:00 +35°C° 0 mm 4 mps 714 mmHg 14%
    08:00 +37°C° 0 mm 4 mps 715 mmHg 13%
    09:00 +37°C° 0 mm 3 mps 715 mmHg 13%
    10:00 +38°C° 0 mm 3 mps 715 mmHg 13%
    11:00 +39°C° 0 mm 3 mps 715 mmHg 12%
    12:00 +39°C° 0 mm 3 mps 714 mmHg 12%
    13:00 +40°C° 0 mm 3 mps 714 mmHg 12%
    14:00 +40°C° 0 mm 2 mps 713 mmHg 13%
    15:00 +40°C° 0 mm 2 mps 713 mmHg 13%
    16:00 +39°C° 0 mm 3 mps 712 mmHg 13%
    17:00 +39°C° 0 mm 3 mps 712 mmHg 13%
    18:00 +38°C° 0 mm 2 mps 712 mmHg 13%
    19:00 +36°C° 0 mm 1 mps 712 mmHg 14%
    20:00 +35°C° 0 mm 1 mps 712 mmHg 14%
    21:00 +34°C° 0 mm 1 mps 712 mmHg 15%
    22:00 +34°C° 0 mm 1 mps 712 mmHg 15%
    23:00 +33°C° 0 mm 1 mps 712 mmHg 16%

    Day after tomorrow, 24 May, Friday

    Time Temperature Precipitation Wind Pressure Humidity
    00:00 +33°C° 0 mm 1 mps 712 mmHg 16%
    01:00 +32°C° 0 mm 1 mps 712 mmHg 17%
    02:00 +32°C° 0 mm 1 mps 711 mmHg 17%
    03:00 +31°C° 0 mm 1 mps 711 mmHg 17%
    04:00 +31°C° 0 mm 2 mps 711 mmHg 17%
    05:00 +31°C° 0 mm 2 mps 711 mmHg 17%
    06:00 +34°C° 0 mm 2 mps 712 mmHg 16%
    07:00 +34°C° 0 mm 1 mps 712 mmHg 15%
    08:00 +36°C° 0 mm 1 mps 713 mmHg 14%
    09:00 +38°C° 0 mm 2 mps 713 mmHg 14%
    10:00 +39°C° 0 mm 2 mps 713 mmHg 13%
    11:00 +39°C° 0 mm 3 mps 713 mmHg 12%
    12:00 +40°C° 0 mm 3 mps 713 mmHg 12%
    13:00 +41°C° 0 mm 4 mps 712 mmHg 12%
    14:00 +42°C° 0 mm 4 mps 712 mmHg 11%
    15:00 +41°C° 0 mm 4 mps 711 mmHg 11%
    16:00 +41°C° 0 mm 4 mps 711 mmHg 12%
    17:00 +40°C° 0 mm 3 mps 711 mmHg 12%
    18:00 +38°C° 0 mm 2 mps 711 mmHg 13%
    19:00 +36°C° 0 mm 1 mps 711 mmHg 14%
    20:00 +33°C° 0 mm 0 mps 711 mmHg 16%
    21:00 +32°C° 0 mm 0 mps 711 mmHg 16%
    22:00 +31°C° 0 mm 0 mps 711 mmHg 16%
    23:00 +31°C° 0 mm 0 mps 711 mmHg 16%

    25 May, Saturday

    Time Temperature Precipitation Wind Pressure Humidity
    00:00 +30°C° 0 mm 0 mps 711 mmHg 17%
    01:00 +30°C° 0 mm 0 mps 711 mmHg 17%
    02:00 +29°C° 0 mm 0 mps 711 mmHg 17%
    03:00 +29°C° 0 mm 0 mps 711 mmHg 17%
    04:00 +28°C° 0 mm 0 mps 711 mmHg 18%
    05:00 +28°C° 0 mm 0 mps 711 mmHg 18%
    06:00 +31°C° 0 mm 1 mps 712 mmHg 17%
    07:00 +33°C° 0 mm 1 mps 712 mmHg 16%
    08:00 +36°C° 0 mm 2 mps 713 mmHg 15%
    09:00 +37°C° 0 mm 2 mps 713 mmHg 15%
    10:00 +37°C° 0 mm 2 mps 713 mmHg 16%
    11:00 +38°C° 0 mm 3 mps 713 mmHg 16%
    12:00 +38°C° 0 mm 3 mps 713 mmHg 16%
    13:00 +39°C° 0 mm 3 mps 712 mmHg 17%
    14:00 +39°C° 0 mm 3 mps 712 mmHg 17%
    15:00 +38°C° 0 mm 3 mps 712 mmHg 18%
    16:00 +38°C° 0 mm 3 mps 711 mmHg 20%
    17:00 +37°C° 0 mm 2 mps 711 mmHg 21%
    18:00 +36°C° 0 mm 2 mps 711 mmHg 24%
    19:00 +34°C° 0 mm 1 mps 712 mmHg 26%
    20:00 +33°C° 0 mm 1 mps 712 mmHg 29%
    21:00 +32°C° 0 mm 1 mps 712 mmHg 29%
    22:00 +32°C° 0 mm 1 mps 712 mmHg 29%
    23:00 +32°C° 0 mm 2 mps 713 mmHg 30%

    26 May, Sunday

    Time Temperature Precipitation Wind Pressure Humidity
    00:00 +32°C° 0.2 mm 2 mps 712 mmHg 29%
    01:00 +31°C° 0.2 mm 2 mps 712 mmHg 28%
    02:00 +31°C° 0.2 mm 1 mps 712 mmHg 28%
    03:00 +31°C° 0.1 mm 2 mps 712 mmHg 29%
    04:00 +31°C° 0.1 mm 2 mps 712 mmHg 30%
    05:00 +31°C° 0.1 mm 2 mps 712 mmHg 31%
    06:00 +32°C° 0.1 mm 2 mps 712 mmHg 30%
    07:00 +34°C° 0.1 mm 2 mps 712 mmHg 28%
    08:00 +35°C° 0.1 mm 3 mps 713 mmHg 26%
    09:00 +36°C° 0 mm 2 mps 713 mmHg 25%
    10:00 +36°C° 0 mm 2 mps 712 mmHg 23%
    11:00 +37°C° 0 mm 2 mps 712 mmHg 22%
    12:00 +38°C° 0 mm 2 mps 712 mmHg 21%
    13:00 +39°C° 0 mm 3 mps 712 mmHg 19%
    14:00 +39°C° 0 mm 3 mps 711 mmHg 18%
    15:00 +39°C° 0 mm 3 mps 711 mmHg 18%
    16:00 +39°C° 0 mm 2 mps 711 mmHg 18%
    17:00 +39°C° 0 mm 2 mps 711 mmHg 18%
    18:00 +38°C° 0 mm 2 mps 711 mmHg 19%
    19:00 +37°C° 0 mm 2 mps 711 mmHg 20%
    20:00 +36°C° 0 mm 3 mps 711 mmHg 21%
    21:00 +35°C° 0 mm 2 mps 711 mmHg 22%
    22:00 +35°C° 0 mm 2 mps 711 mmHg 22%
    23:00 +34°C° 0 mm 2 mps 711 mmHg 23%

    27 May, Monday

    Time Temperature Precipitation Wind Pressure Humidity
    00:00 +34°C° 0 mm 2 mps 711 mmHg 24%
    01:00 +32°C° 0 mm 2 mps 711 mmHg 25%
    02:00 +32°C° 0 mm 2 mps 710 mmHg 26%
    03:00 +31°C° 0 mm 2 mps 710 mmHg 27%
    04:00 +31°C° 0 mm 2 mps 710 mmHg 28%
    05:00 +31°C° 0 mm 2 mps 710 mmHg 29%
    06:00 +32°C° 0 mm 2 mps 711 mmHg 27%
    07:00 +34°C° 0 mm 2 mps 711 mmHg 24%
    08:00 +36°C° 0 mm 2 mps 712 mmHg 22%
    09:00 +37°C° 0 mm 2 mps 712 mmHg 20%
    10:00 +38°C° 0 mm 2 mps 711 mmHg 19%
    11:00 +39°C° 0 mm 3 mps 711 mmHg 17%
    12:00 +39°C° 0 mm 3 mps 711 mmHg 16%
    13:00 +41°C° 0 mm 4 mps 710 mmHg 15%
    14:00 +42°C° 0 mm 4 mps 710 mmHg 14%
    15:00 +41°C° 0 mm 4 mps 710 mmHg 14%
    16:00 +41°C° 0 mm 4 mps 710 mmHg 15%
    17:00 +41°C° 0 mm 4 mps 710 mmHg 15%
    18:00 +38°C° 0 mm 3 mps 710 mmHg 16%
    19:00 +37°C° 0 mm 2 mps 711 mmHg 18%
    20:00 +35°C° 0 mm 1 mps 711 mmHg 20%
    21:00 +34°C° 0 mm 1 mps 711 mmHg 20%
    22:00 +35°C° 0 mm 2 mps 711 mmHg 20%
    23:00 +35°C° 0 mm 2 mps 711 mmHg 21%
    Show more